CROCUBE

Last updated on Wed Feb 05 2025 00:03:37 GMT+0000 (Coordinated Universal Time)

1 62394U 24247T 25035.58095127 .00024529 00000+0 11287-2 0 9997 2 62394 44.9926 117.9459 0004712 346.6985 13.3770 15.19959836 7005
UTC large
Height (km)
Speed (km/s)
/
Latitude / Longitude
Inclination (degrees)
Orbital Period (minutes)
Azimuth
Elevation
Range (km)
Doppler Factor

Next 0 passes for location: London (51.5072 / 0.1276)

Sorry there are no passes over London.